Location: Gudip?du
(17.0263°N, 80.8301°E)
Time: 13:27:21
(UTC+00:00)

SME Rocket - Pass Details

Date: 03 August 2024
Orbit: 550 x 2642 km, 99.9° (Epoch: 11 September)

Event Time Altitude Azimuth Distance (km) Brightness Sun altitude
Rises 22:59:30 0° 19° (NNE) 4,167 8.0 -18.2°
Reaches altitude 10° 23:02:40 10° 23° (NNE) 2,895 7.2 -17.5°
Maximum altitude 23:08:39 53° 100° (E) 966 4.3 -16.2°
Drops below altitude 10° 23:12:51 10° 177° (S) 2,047 5.5 -15.3°
Sets 23:14:46 0° 182° (S) 2,846 6.2 -14.8°
